Location: Fayetteville
(35.0530°N, 78.8790°W)
Time: 14:51:30
(UTC-05:00)

ISS - Visible Passes

Search period start: 02 December 2016 00:00
Search period end: 12 December 2016 00:00
Orbit: 401 x 410 km, 51.6° (Epoch: 03 December)

Date Brightness Start Highest point End Pass type
(mag) Time Alt. Az. Time Alt. Az. Time Alt. Az.
02 Dec -1.1 18:35:25 10° WNW 18:37:50 19° NNW 18:38:49 17° N visible
03 Dec -1.9 17:42:48 10° W 17:45:47 31° NW 17:48:47 10° NNE visible
04 Dec -0.5 18:30:18 10° NNW 18:30:52 10° NNW 18:31:27 10° NNW visible
05 Dec -0.9 17:36:35 10° WNW 17:38:40 16° NNW 17:40:46 10° N visible
